Weather in Kazachiy Mys

Russia / Novosibirsk Oblast     55°30′35″N   75°52′35″E
temp.,
°C
wind,
m/s
gust,
m/s
humid.,
%
clouds,
%
prec.,
mm/h
press.,
hPa
HPBL,
m
15 may, sat
sat1501:00+13wsw464613 0.0 102482
04:00+12sw4115494 0.0 1022150
07:00+13sw41260100 0.0 1022229
10:00+19sw464687 0.1 1021352
13:00+27wsw71031100 0.2 10191317
16:00+29w792742 0.0 10173315
19:00+28wnw683029 0.0 10152764
22:00+17nnw61376100 1.3 1017294
16 may, sun
sun1601:00+17sw597299 1.7 1016172
04:00+15wsw397965 0.0 1015163
07:00+15sw35789 0.0 1014114
10:00+21wsw61053100 0.5 1013470
13:00+25wnw6843100 0.5 10131140
16:00+25nw8104285 0.0 10122370
19:00+22nnw5105184 0.0 1013961
22:00+17nw358152 0.9 101596
17 may, mon
mon1701:00+16n2285100 0.9 101536
04:00+14n229113 0.0 101637
07:00+13nne22925 0.0 101769
10:00+19w12655 0.0 1017462
13:00+24wsw454512 0.0 10161176
16:00+29w69345 0.0 10142305
19:00+29nw610305 0.0 10123017
22:00+22wsw410440 0.0 1010144
18 may, tue
tue1801:00+21w4134544 0.0 1010280
04:00+18wnw51456100 0.4 1009328
07:00+16nw512706 0.4 1010332
10:00+20nw6105513 0.0 1010714
13:00+25wnw69414 0.0 10101750
16:00+26wnw81133100 0.0 10083254
19:00+17wnw51081100 4.1 1011365
22:00+15wnw238399 2.2 100952
19 may, wed
wed1901:00+14ne4990100 2.5 1009291
04:00+12ne4784100 1.1 1010470
07:00+10ne588760 1.1 1011533
10:00+11nne6971100 0.0 1013742
13:00+14n6956100 0.0 10131694
16:00+16nne7103793 0.0 10142550
19:00+13n8104799 0.0 10151835
22:00+10n612485 0.0 1018578